Regional Weather Roundup
Issued by NWS Pendleton, OR

Home | Current Version | Previous Version | Text Only | Print | Product List | Glossary On
Versions: 1 2 3 4 5 6 7 8 9 10 11 12 13 14 15 16 17 18 19 20 21 22 23 24 25 26 27 28 29 30 31 32 33 34 35 36 37 38 39 40 41 42 43 44 45 46 47 48 49 50
312
ASUS46 KPDT 302110
RWRPDT
PENDLETON REGIONAL WEATHER ROUNDUP
NATIONAL WEATHER SERVICE PENDLETON OREGON
200 PM PDT SAT APR 30 2016

NOTE: FAIR INDICATES FEW OR NO CLOUDS BELOW 12,000 FEET WITH NO
SIGNIFICANT WEATHER AND/OR OBSTRUCTIONS TO VISIBILITY.

# INDICATES UNOFFICIAL STATION AND DATA

WAZ520-302210-
EAST SLOPES OF WASHINGTON CASCADES

CITY            SKY/WX      TMP DP  RH  WIND    PRES   REMARKS
#CLE ELUM HS    N/A         64  32  30  NW7     30.17F
#CLE ELUM 2NW   N/A         63  34  34  SW5     N/A
#CLE ELUM LAKE  N/A         61  37  41  W1      30.22F
#GLENWOOD       N/A         66  45  47  SW1     30.22F
#MANASTASH CYN  N/A         66  27  23  SW2     30.18F
#NELSON 3SW     N/A         61  41  48  CALM    30.41F
#NILE           N/A         67  35  30  SE3     29.47F
#RONALD 2NW     N/A         62  N/A N/A W2      30.09F
#TEANAWAY 4NE   N/A         66  43  43  S6      N/A
#TROUT LAKE 1NE N/A         65  41  41  S1      30.20F
$$

WAZ521-302210-
SIMCOE HIGHLANDS

CITY            SKY/WX      TMP DP  RH  WIND    PRES   REMARKS
#BICKLETON HS   N/A         59  27  29  VRB7    N/A
#CENTERVILLE 1SWN/A         63  41  44  SW6     30.17F
#GOLDENDALE 1NE N/A         64  28  25  SE7     N/A
#GOODNOE HILLS  N/A         70  40  34  S10     30.11F
#LYLE 6NE       N/A         63  41  44  SW3     30.20F
$$

WAZ026-302210-
KITTITAS VALLEY

CITY            SKY/WX      TMP DP  RH  WIND    PRES   REMARKS
ELLENSBURG AP   SUNNY       71  30  22  W3      30.21F
YTC-OPS AREA    SUNNY       60  26  27  N7      30.25S
#ELLENSBURG CWU N/A         69  32  25  S2      30.14F
#ELLENSBURG 3NE N/A         66  37  34  CALM    30.19F
#ELLENSBURG     N/A         74  34  23  S2      N/A
#KITTITAS 3S    N/A         66  40  38  CALM    30.18F
#THORP 6N       N/A         63  37  38  SW7     30.24F
$$

WAZ027-302210-
YAKIMA VALLEY

CITY            SKY/WX      TMP DP  RH  WIND    PRES   REMARKS
YAKIMA AIRPORT  PTCLDY      74  31  20  NW7     30.20F
YAKIMA-VAGABOND SUNNY       71  28  20  N7      30.18F
#DONALD 2NE     N/A         76   0   5  S1      29.04F
#GRANDVIEW      N/A         69  33  26  E1      30.21F
#MABTON         N/A         68  39  35  NW6     30.20F
#NACHES 2SW     N/A         69  39  33  E1      30.23F
#TERRACE HTS    N/A         78  39  25  CALM    30.15F
#TOPPENISH      N/A         68  35  29  CALM    30.11S
#WEST VALLEY    N/A         67  35  30  CALM    30.18F
#W YAKIMA       N/A         68  35  29  NW3     30.20F
#WHITE SWAN 5E  N/A         69  36  30  N2      30.21F
#WILEY CITY 3W  N/A         70  26  19  CALM    30.18F
$$

WAZ028-302210-
LOWER COLUMBIA BASIN...WASHINGTON

CITY            SKY/WX      TMP DP  RH  WIND    PRES   REMARKS
HANFORD         PTCLDY      72  31  22  N12     30.22S
PASCO           SUNNY       72  42  34  N10     30.20F
PROSSER AWOS    N/A         72  37  28  N9      30.23F
RICHLAND AWOS   PTCLDY      74  39  28  N8      30.20F
#BENTON CITY    N/A         68  39  35  E5      30.10F
#CONNELL 5N     N/A         66  48  52  W2      30.21F
#CONNELL 5NW    N/A         64  47  54  N1      30.17F
#ELTOPIA 6NW    N/A         68  50  53  NE1     29.17F
#KAHLOTUS       N/A         61  48  62  E14     30.21S
#KENNEWICK 3S   N/A         70  44  39  N1      30.21F
#PATERSON       N/A         68  41  37  W7      30.18F
#SAGEMOOR 2W    N/A         70  47  44  NW5     30.05F
#TOUCHET 2S     N/A         67  49  52  CALM    30.19S
#WEST PASCO     N/A         72  45  38  N5      30.29F
$$

WAZ029-302210-
FOOTHILLS OF THE BLUES...WASHINGTON

CITY            SKY/WX      TMP DP  RH  WIND    PRES   REMARKS
WALLA WALLA AP  MOCLDY      62  42  48  VRB5    30.23S
#CLYDE 6NW      N/A         62  46  56  S1      30.19F
#DAYTON SCHOOL  N/A         58  39  49  N2      30.24S
#LOWDEN 2SE     N/A         67  46  47  SW2     30.17F
#PLEASANT VIEW 1N/A         58  45  62  N1      30.26S
#PRESCOTT       N/A         62  47  58  CALM    30.20F
#SUDBURY        N/A         57  N/A N/A CALM    N/A
#WHITMAN COLLEGEN/A         63  45  52  E2      30.27F
#WAITSBURG 5S   N/A         59  45  60  S3      30.32F
#WAITSBURG 8N   N/A         61  21  21  SW1     30.06S
#WALLA WALLA U  N/A         62  44  52  CALM    30.22S
#WHITMAN MISSIONN/A         65  48  54  CALM    30.22F
$$

WAZ030-302210-
BLUE MOUNTAINS...WASHINGTON

CITY            SKY/WX      TMP DP  RH  WIND    PRES   REMARKS
#DIXIE 5SE      N/A         45  40  82  S6      30.17S
$$

ORZ009-041-WAZ024-302210-
COLUMBIA RIVER GORGE

CITY            SKY/WX      TMP DP  RH  WIND    PRES   REMARKS
HOOD RIVER AP   SUNNY       68  41  37  NW8     30.22F
THE DALLES AP   SUNNY       72  32  23  S6      30.20F
#ARLINGTON AIRPON/A         68  40  36  N3      30.21F
#CELILO DOT     N/A         72  43  35  NW2     N/A
#MARYHILL 2W    N/A         67  39  36  S3      N/A
#MOSIER 1S      N/A         66  31  27  NW8     30.21F
#MURDOCK        N/A         69  41  36  NW3     30.17F
#RUFUS DOT      N/A         70  38  31  W8      N/A

$$

ORZ510-302210-
NORTH CENTRAL OREGON

CITY            SKY/WX      TMP DP  RH  WIND    PRES   REMARKS
#ANTELOPE       N/A         59  38  45  N8      30.13F
#COW CYN RST AREN/A         58  33  39  N7      N/A
#DUFUR 9E       N/A         60  37  42  NE10    30.28F
#GRASS VALLEY   N/A         63  36  36  N3      N/A
#GRASS VALLEY 1SN/A         62  37  39  NE7     30.16F
#KENT DOT       N/A         61  31  32  N6      N/A
#MAUPIN SCHOOL  N/A         68  40  36  CALM    30.24F
#MORO SCHOOL    N/A         65  41  41  N6      30.22F
#SHANIKO 5WSW   N/A         56  28  34  N3      N/A
#TYGH VALLEY 2NEN/A         67  42  40  S3      30.20F
#WAPANITIA AIRPON/A         63  40  43  NE3     30.24F
#WASCO DOT      N/A         69  40  35  W5      N/A
#WASCO 5NE      N/A         66  41  40  CALM    30.22F
$$

ORZ511-302210-
CENTRAL OREGON

CITY            SKY/WX      TMP DP  RH  WIND    PRES   REMARKS
BEND AIRPORT    SUNNY       57  32  38  N7      30.21F
MADRAS AIRPORT  SUNNY       61  34  36  N3      30.24F
PRINEVILLE AP   MOSUNNY     61  32  33  N12     30.21F
REDMOND AIRPORT MOSUNNY     61  34  36  N13     30.21F
#ASHWOOD SCHOOL N/A         60  36  41  NW7     30.17F
#BEND 1SW       N/A         56  36  47  NE2     N/A
#BEND-AWBREY    N/A         58  37  45  E2      30.25F
#BEND-KIM LN    N/A         58  37  45  NE3     30.20F
#CULVER         N/A         60  37  42  N2      30.20F
#LAKE BILLY CHINN/A         62  N/A N/A NE8     30.23F
#POWELL BUTTE   N/A         64  40  41  NE8     30.07F
#PRINEVILLE 3N  N/A         60  40  47  N10     30.20F
#WARM SPRINGS   N/A         65  38  37  SW3     30.19F

$$


ORZ509-302210-
EAST SLOPES OF OREGON CASCADES

CITY            SKY/WX      TMP DP  RH  WIND    PRES   REMARKS
SISTERS AWOS    N/A         57  34  42  N10G24  30.18F
#BLUE BOX PASS  N/A         55  N/A N/A N7      N/A
#BLACK BUTTE RNCN/A         60  36  41  CALM    30.23F
#CAMP SHERMAN   N/A         62  32  32  E2      30.28F
#LA PINE 4NW    N/A         55  34  45  E2      30.28F
#LAVA BUTTE DOT N/A         55  29  37  N1      N/A
#SISTERS AIRPOR N/A         57  40  53  N9      30.17S
#SISTERS ODOT   N/A         57  N/A N/A W7      N/A
#SISTERS 3N     N/A         58  35  42  E5      30.20F
#SUNRIVER       N/A         55  35  47  E5      30.29F
#SUTTLE LK DOT  N/A         51  34  52  N10     N/A
#TUMALO 3W      N/A         55  34  45  N6      30.13F
#WANOGA BUTTE D N/A         43  27  53  E14     N/A    WCI 36

$$

ORZ044-302210-
LOWER COLUMBIA BASIN...OREGON

CITY            SKY/WX      TMP DP  RH  WIND    PRES   REMARKS
HERMISTON       MOCLDY      71  38  30  N7      30.20F
#BOARDMAN SCHOOLN/A         71  39  31  SW1     30.19F
#ECHO 8SW       N/A         69  39  33  NW1     30.21F
#I-84 EX 198 DOTN/A         64  42  45  E8      N/A
#UMATILLA SCHOOLN/A         75  50  41  CALM    30.18F
#UMATILLA       N/A         71  40  32  N1      30.14S
$$

ORZ507-302210-
NORTHERN FOOTHILLS OF THE BLUES

CITY            SKY/WX      TMP DP  RH  WIND    PRES   REMARKS
PENDLETON AIRPT MOCLDY      64  38  38  N9      30.21F
#ADAMS 3WNW     N/A         61  43  51  NE1     30.22S
#ATHENA         N/A         61  42  50  CALM    30.24F
#CAYUSE         N/A         59  41  51  CALM    30.22S
#HELIX SCHOOL   N/A         60  42  51  CALM    30.22S
#HELIX 3N       N/A         60  43  53  N5      30.17F
#HELIX 6SW      N/A         61  44  53  W8      30.20F
#HOLDMAN 5SE    N/A         63  42  46  N1      30.20S
#HOLDMAN 6E     N/A         62  42  48  SE2     30.03S
#M-F FERNDALE   N/A         70  43  38  CALM    30.21F
#M-F GROVE ELEM N/A         62  39  43  NW2     30.19F
#M-FREEWATER 5SEN/A         62  44  52  CALM    30.21F
#PENDLETON DNTN N/A         66  39  37  NW3     30.22F
#PDT AQUATIC CTRN/A         64  40  41  N7      30.19F
#PDT SUNRIDGE   N/A         63  41  44  W1      30.23S
#PENDLETON 7NW  N/A         65  45  48  CALM    27.45S
#PILOT ROCK     N/A         61  39  44  N5      30.22S
#TUTUILLA       N/A         61  43  51  CALM    30.22F
#UMAPINE 2E     N/A         65  46  50  CALM    30.19F
#WESTON SCHOOL  N/A         58  39  49  W2      30.14F

$$

ORZ508-302210-
SOUTHERN FOOTHILLS OF THE BLUES

CITY            SKY/WX      TMP DP  RH  WIND    PRES   REMARKS
#AJAX           N/A         62  33  34  N2      27.96F
#CONDON SCHOOL  N/A         60  38  44  N9      30.17F
#CONDON 5W      N/A         56  34  43  N9      30.21S
#FOSSIL SCHOOL  N/A         60  37  42  NE5     30.16F
#HEPPNER EOC    N/A         62  39  43  N3      30.16F
#HEPPNER 4NE    N/A         58  39  49  N2      30.23F
#LEXINGTON 2SE  N/A         65  39  38  N9      30.18F
#MIKKALO        N/A         65  35  33  N3      30.31F
#RUGGS 5NE      N/A         60  36  41  N9      30.40R
#RUGGS 2SW      N/A         58  37  45  N7      30.25F

$$

ORZ502-503-302210-
BLUE MOUNTAINS

CITY            SKY/WX      TMP DP  RH  WIND    PRES   REMARKS
MEACHAM         CLOUDY      50  37  61  VRB5    30.24S
#BATTLE MTN DOT N/A         49  41  74  N5      N/A
#GREENHORN 9SW  N/A         53  39  59  W3      26.38R
#HARDMAN 10S    N/A         61  34  36  N5      30.22S
#HEPPNER 15SE   N/A         51  38  61  N6      30.15F
#LADD CYN SMT   N/A         54  35  48  W13     N/A
#LADD CREEK ODOTN/A         55  40  57  NE12    N/A
#LONG CREEK HS  N/A         52  42  69  CALM    N/A
#N POWDER DOT   N/A         54  41  61  N18     N/A
#PIKES PEAK     N/A         48  39  71  SW6     27.99S
#TOLLGATE       N/A         40  38  92  CALM    30.06S
#TROY SCHOOL    N/A         57  48  72  E1      30.06S
#UKIAH          N/A         52  39  61  N7      30.16S
#WESTON 4E      N/A         52  43  71  SW3     30.23F
$$

ORZ505-302210-
JOHN DAY BASIN

CITY            SKY/WX      TMP DP  RH  WIND    PRES   REMARKS
JOHN DAY        CLOUDY      54  38  55  NW5     30.21F
#DAYVILLE SCHOOLN/A         59  35  40  NW2     30.15F
#MITCHELL       N/A         57  40  53  CALM    30.36F
#MITCHELL 8NW   N/A         56  35  45  NE2     30.44F
#MONUMENT HS    N/A         62  38  41  E5      30.16F
#MT. VERNON 5SE N/A         52  37  56  W2      30.16F
#SPRAY SCHOOL   N/A         67  N/A N/A N3      N/A
#WINLOCK        N/A         61  35  38  CALM    30.18S
$$

ORZ506-302210-
OCHOCO AND JOHN DAY HIGHLANDS

CITY            SKY/WX      TMP DP  RH  WIND    PRES   REMARKS
#HORSE RIDGE DO N/A         53  31  43  N8      N/A
#KEYES SMT DOT  N/A         50  35  56  N3      N/A
#PAULINA SCHOOL N/A         58  38  47  N7      29.40F
#PINE MTN OBS   N/A         41  35  79  NW3     N/A
#PRAIRIE CITY   N/A         58  40  51  N1      30.16F
#SENECA         N/A         50  N/A N/A N7      N/A
#SENECA 9NW     N/A         51  36  56  SW2     30.18S
$$

ORZ049-302210-
GRANDE RONDE VALLEY

CITY            SKY/WX      TMP DP  RH  WIND    PRES   REMARKS
LA GRANDE       CLOUDY      57  34  42  NW16    30.20S
#COVE           N/A         55  46  72  NW3     30.21F
#COVE SCHOOL    N/A         55  43  64  CALM    30.20F
#COVE 6NW       N/A         39  35  85  CALM    29.63S
#ELGIN 3N       N/A         56  38  51  CALM    30.17S
#ELGIN 1E       N/A         56  40  55  W7      N/A
#IMBLER SCHOOL  N/A         53  39  59  NW8     30.15S
#ISLAND CITY 4N N/A         62  53  72  SW2     30.30F
#LADD CYN DOT   N/A         57  41  55  NW8     N/A
#UNION 1S       N/A         55  41  59  W8      30.11F
$$

ORZ050-302210-
WALLOWA COUNTY

CITY            SKY/WX      TMP DP  RH  WIND    PRES   REMARKS
JOSEPH AIRPORT  LGT RAIN    46  41  83  N6      30.21S
#ENTERPRISE AP  N/A         49  29  46  CALM    30.12R
#ENTERPRISE HS  N/A         47  43  86  N3      30.20S
#IMNAHA SCHOOL  N/A         56  47  72  N5      30.18F
#IMNAHA 10S     N/A         52  45  77  NE3     30.16F
#JOSEPH 3N      N/A         46  40  79  NW7     30.20S
#JOSEPH 3W      N/A         45  41  86  CALM    30.02R
#LOSTINE        N/A         53  43  69  CALM    30.01F
#MT HOWARD 8000 N/A         32  31  96  N7      30.17R
#PROMISE 1S     N/A         46  42  86  W6      30.33R
#WALLOWA SCHOOL N/A         50  44  80  CALM    30.16S



$$



USA.gov is the U.S. government's official web portal to all federal, state and local government web resources and services.